SM2GSR-2 Weather Reports


time (UTC)temp
C
wind
direction
speed
KPH
gust
KPH
rain 1hr
cm
rain 24hr
cm
rain mn
cm
humidity
%
barometer
mb
20260508063504 5 235 0.0 4.8 0.00 0.03 0.00 61 1018.1
20260508063004 5 229 1.6 4.8 0.00 0.03 0.00 62 1018.1
20260508062504 5 234 0.0 4.8 0.00 0.03 0.00 63 1018.0
20260508062004 5 207 1.6 3.2 0.00 0.03 0.00 63 1018.0
20260508061504 5 289 0.0 3.2 0.00 0.03 0.00 64 1018.0
20260508060504 4 143 0.0 0.0 0.00 0.03 0.00 69 1017.9
20260508060004 4 143 0.0 0.0 0.00 0.03 0.00 69 1017.8
20260508055505 4 143 0.0 0.0 0.00 0.03 0.00 69 1017.8
20260508055004 3 143 0.0 0.0 0.00 0.03 0.00 70 1017.7
20260508054503 3 200 0.0 0.0 0.00 0.03 0.00 70 1017.7
20260508054004 3 202 0.0 0.0 0.00 0.03 0.00 71 1017.6
20260508053504 3 230 0.0 0.0 0.00 0.03 0.00 73 1017.6
20260508053004 3 230 0.0 0.0 0.00 0.03 0.00 74 1017.7
20260508052003 2 230 0.0 0.0 0.00 0.03 0.00 78 1017.6
20260508051504 1 230 0.0 0.0 0.00 0.03 0.00 80 1017.6
20260508051004 1 236 0.0 0.0 0.00 0.03 0.00 82 1017.6
20260508050504 1 303 0.0 0.0 0.00 0.03 0.00 84 1017.6
20260508050004 0 303 0.0 0.0 0.00 0.03 0.00 86 1017.6
20260508045004 0 302 0.0 0.0 0.00 0.03 0.00 88 1017.5
20260508044504 0 302 0.0 0.0 0.00 0.03 0.00 89 1017.5
20260508044004 -1 302 0.0 0.0 0.00 0.03 0.00 90 1017.5
20260508043504 -1 303 0.0 0.0 0.00 0.03 0.00 90 1017.4
20260508043004 -1 302 0.0 0.0 0.00 0.03 0.00 89 1017.4
20260508042005 -2 302 0.0 0.0 0.00 0.03 0.00 88 1017.3
20260508041505 -2 302 0.0 0.0 0.00 0.03 0.00 88 1017.4
20260508041004 -2 303 0.0 0.0 0.00 0.03 0.00 88 1017.3
20260508035504 -3 302 0.0 0.0 0.00 0.03 0.00 88 1017.3
20260508035004 -3 303 0.0 0.0 0.00 0.03 0.00 88 1017.2
20260508034504 -4 302 0.0 0.0 0.00 0.03 0.00 89 1017.2
20260508033504 -5 302 0.0 0.0 0.00 0.03 0.00 89 1017.2
20260508033004 -5 302 0.0 0.0 0.00 0.03 0.00 89 1017.1
20260508032503 -5 302 0.0 0.0 0.00 0.03 0.00 89 1017.1
20260508032004 -5 302 0.0 0.0 0.00 0.03 0.00 89 1017.1
20260508031504 -5 302 0.0 0.0 0.00 0.03 0.00 89 1017.1
20260508030504 -5 302 0.0 0.0 0.00 0.03 0.00 89 1017.0
20260508030004 -5 302 0.0 0.0 0.00 0.03 0.00 90 1017.0
20260508025504 -5 302 0.0 0.0 0.00 0.03 0.00 90 1017.0
20260508025004 -5 302 0.0 0.0 0.00 0.03 0.00 90 1016.9
20260508024504 -6 302 0.0 0.0 0.00 0.03 0.00 90 1016.9
20260508024004 -6 302 0.0 0.0 0.00 0.03 0.00 90 1016.9
20260508023004 -6 302 0.0 0.0 0.00 0.03 0.00 90 1016.7
20260508022503 -6 302 0.0 0.0 0.00 0.03 0.00 90 1016.7
20260508022004 -6 302 0.0 0.0 0.00 0.03 0.00 90 1016.6
20260508021004 -6 302 0.0 0.0 0.00 0.03 0.00 90 1016.6
20260508020503 -6 302 0.0 0.0 0.00 0.03 0.00 90 1016.6
20260508020004 -5 302 0.0 0.0 0.00 0.03 0.00 90 1016.5
20260508015504 -5 302 0.0 0.0 0.00 0.03 0.00 90 1016.5
20260508015004 -5 302 0.0 0.0 0.00 0.03 0.00 90 1016.5
20260508014004 -5 302 0.0 0.0 0.00 0.03 0.00 90 1016.4
20260508013504 -5 302 0.0 0.0 0.00 0.03 0.00 90 1016.4
20260508013004 -5 302 0.0 0.0 0.00 0.03 0.00 90 1016.3
20260508012504 -5 302 0.0 0.0 0.00 0.03 0.00 90 1016.3
20260508012004 -5 302 0.0 0.0 0.00 0.03 0.00 90 1016.2
20260508011504 -5 302 0.0 0.0 0.00 0.03 0.00 89 1016.2
20260508010504 -5 302 0.0 0.0 0.00 0.03 0.00 90 1016.1
20260508010004 -5 302 0.0 0.0 0.00 0.03 0.00 90 1016.1
20260508005503 -5 302 0.0 0.0 0.00 0.03 0.00 90 1016.1
20260508005003 -5 302 0.0 0.0 0.00 0.03 0.00 89 1016.0
20260508004503 -5 302 0.0 0.0 0.00 0.03 0.00 89 1015.9
20260508004002 -5 302 0.0 0.0 0.00 0.03 0.00 89 1015.9
20260508003503 -5 302 0.0 0.0 0.00 0.03 0.00 89 1015.8
20260508003003 -5 302 0.0 0.0 0.00 0.03 0.00 89 1015.8
20260508002502 -5 302 0.0 0.0 0.00 0.03 0.00 89 1015.8
20260508002003 -5 302 0.0 0.0 0.00 0.03 0.00 89 1015.7
20260508001503 -5 302 0.0 0.0 0.00 0.03 0.00 89 1015.7
20260508001003 -5 302 0.0 0.0 0.00 0.03 0.00 89 1015.7
20260508000003 -5 302 0.0 0.0 0.00 0.03 0.00 89 1015.6
20260507235504 -5 302 0.0 0.0 0.00 0.03 0.00 89 1015.5
20260507235003 -5 302 0.0 0.0 0.00 0.03 0.00 89 1015.5
20260507234505 -5 302 0.0 0.0 0.00 0.03 0.00 89 1015.4
20260507234004 -5 302 0.0 0.0 0.00 0.03 0.00 89 1015.4
20260507233505 -4 302 0.0 0.0 0.00 0.03 0.00 89 1015.3
20260507233003 -4 302 0.0 0.0 0.00 0.03 0.00 89 1015.3
20260507232003 -4 302 0.0 0.0 0.00 0.03 0.00 88 1015.2
20260507231503 -4 302 0.0 0.0 0.00 0.03 0.00 88 1015.2
20260507231003 -4 302 0.0 0.0 0.00 0.03 0.00 88 1015.2
20260507230502 -4 302 0.0 0.0 0.00 0.03 0.00 88 1015.0
20260507230003 -4 302 0.0 0.0 0.00 0.03 0.00 88 1015.0
20260507225503 -4 302 0.0 0.0 0.00 0.03 0.00 88 1015.0
20260507225003 -3 302 0.0 0.0 0.00 0.03 0.00 88 1014.9
20260507224504 -3 302 0.0 0.0 0.00 0.03 0.00 88 1014.9
20260507224003 -3 302 0.0 0.0 0.00 0.03 0.00 88 1014.8
20260507222502 -3 302 0.0 0.0 0.00 0.03 0.00 87 1014.7
20260507222003 -3 302 0.0 0.0 0.00 0.03 0.00 87 1014.6
20260507221003 -3 302 0.0 0.0 0.00 0.03 0.00 87 1014.6
20260507220003 -3 302 0.0 0.0 0.00 0.03 0.00 86 1014.5
20260507215003 -3 302 0.0 0.0 0.00 0.03 0.03 85 1014.4
20260507214002 -3 302 0.0 0.0 0.00 0.03 0.03 84 1014.3
20260507213003 -2 302 0.0 0.0 0.00 0.03 0.03 83 1014.2
20260507212503 -2 302 0.0 0.0 0.00 0.03 0.03 83 1014.2
20260507212003 -2 302 0.0 0.0 0.00 0.03 0.03 82 1014.1
20260507211503 -2 302 0.0 0.0 0.00 0.03 0.03 81 1014.0
20260507211002 -2 302 0.0 0.0 0.00 0.03 0.03 80 1014.0
20260507210503 -2 302 0.0 0.0 0.00 0.03 0.03 79 1013.9
20260507210004 -2 302 0.0 0.0 0.00 0.03 0.03 78 1013.8
20260507205502 -2 302 0.0 0.0 0.00 0.03 0.03 78 1013.8
20260507205003 -2 302 0.0 0.0 0.00 0.03 0.03 78 1013.7
20260507204503 -2 302 0.0 0.0 0.00 0.03 0.03 77 1013.6
20260507203503 -1 302 0.0 0.0 0.00 0.03 0.03 76 1013.5
20260507203003 -1 302 0.0 0.0 0.00 0.03 0.03 76 1013.5
20260507202503 -1 302 0.0 0.0 0.00 0.03 0.03 75 1013.4
20260507201503 -1 302 0.0 0.0 0.00 0.03 0.03 73 1013.3
20260507201003 -1 302 0.0 0.0 0.00 0.03 0.03 72 1013.3
20260507200003 0 302 0.0 0.0 0.00 0.03 0.03 70 1013.1
20260507195003 0 302 0.0 0.0 0.00 0.03 0.03 68 1013.0
20260507194503 0 302 0.0 0.0 0.00 0.03 0.03 68 1012.9
20260507193004 1 303 0.0 0.0 0.00 0.03 0.03 64 1012.7
20260507192503 1 303 0.0 0.0 0.00 0.03 0.03 63 1012.6
20260507192002 1 303 0.0 0.0 0.00 0.03 0.03 61 1012.6
20260507191503 2 304 0.0 0.0 0.00 0.03 0.03 60 1012.5
20260507190503 3 304 0.0 0.0 0.00 0.03 0.03 56 1012.4
20260507190004 3 304 0.0 0.0 0.00 0.03 0.03 53 1012.3
20260507185503 4 304 0.0 0.0 0.00 0.03 0.03 52 1012.3
20260507184503 5 304 0.0 0.0 0.00 0.03 0.03 49 1012.1
20260507184003 5 304 0.0 0.0 0.00 0.03 0.03 47 1012.1
20260507183503 5 304 0.0 0.0 0.00 0.03 0.03 48 1012.0
20260507182503 5 306 0.0 0.0 0.00 0.03 0.03 47 1011.9
20260507182003 5 313 0.0 0.0 0.00 0.03 0.03 46 1011.8
20260507181503 5 292 0.0 0.0 0.00 0.05 0.03 47 1011.8
20260507180503 5 286 0.0 0.0 0.00 0.05 0.03 48 1011.7
20260507180003 5 286 0.0 0.0 0.00 0.05 0.03 48 1011.6
20260507175503 5 286 0.0 0.0 0.00 0.05 0.03 48 1011.6
20260507175003 5 286 0.0 0.0 0.00 0.05 0.03 46 1011.5
20260507174003 6 286 0.0 0.0 0.00 0.05 0.03 45 1011.3
20260507173502 6 286 0.0 0.0 0.00 0.05 0.03 46 1011.3
20260507173004 6 286 0.0 0.0 0.00 0.05 0.03 44 1011.2
20260507172503 6 286 0.0 0.0 0.00 0.05 0.03 44 1011.2
20260507172003 6 286 0.0 0.0 0.00 0.05 0.03 42 1011.2
20260507171003 7 283 0.0 1.6 0.00 0.05 0.03 40 1011.0
20260507170503 7 282 1.6 9.7 0.00 0.05 0.03 38 1011.0
20260507165003 8 288 1.6 12.9 0.00 0.05 0.03 38 1010.8
20260507164504 7 303 0.0 1.6 0.00 0.05 0.03 40 1010.7
20260507163503 7 322 6.4 16.1 0.00 0.05 0.03 40 1010.7
20260507163003 7 294 0.0 1.6 0.00 0.05 0.03 40 1010.6
20260507162503 8 297 0.0 1.6 0.00 0.05 0.03 39 1010.6
20260507162003 8 320 0.0 1.6 0.00 0.05 0.03 40 1010.5
20260507161503 8 327 0.0 1.6 0.00 0.05 0.03 39 1010.5
20260507160503 8 330 8.0 14.5 0.00 0.05 0.03 38 1010.4
20260507160003 8 293 8.0 16.1 0.00 0.05 0.03 38 1010.3
20260507155503 8 309 3.2 12.9 0.00 0.05 0.03 40 1010.3
20260507155003 7 312 0.0 8.0 0.00 0.05 0.03 40 1010.3
20260507154503 7 302 8.0 12.9 0.00 0.05 0.03 39 1010.2
20260507154003 7 318 3.2 19.3 0.00 0.05 0.03 39 1010.2
20260507153504 7 314 1.6 14.5 0.00 0.05 0.03 39 1010.2
20260507153003 8 304 6.4 14.5 0.00 0.05 0.03 37 1010.1
20260507152503 8 308 6.4 12.9 0.00 0.05 0.03 36 1010.1
20260507152003 8 289 8.0 20.9 0.00 0.05 0.03 37 1010.0
20260507151503 8 302 11.3 19.3 0.00 0.05 0.03 36 1010.0
20260507150503 7 327 0.0 1.6 0.00 0.05 0.03 40 1009.9
20260507150002 7 325 0.0 0.0 0.00 0.05 0.03 40 1009.8
20260507145503 7 324 0.0 0.0 0.00 0.08 0.03 41 1009.8
20260507145003 7 324 0.0 8.0 0.00 0.08 0.03 41 1009.9
20260507144503 7 348 1.6 8.0 0.00 0.08 0.03 43 1009.9
20260507144002 7 112 0.0 0.0 0.00 0.08 0.03 48 1009.9
20260507143503 7 112 0.0 0.0 0.00 0.08 0.03 50 1009.9
20260507143003 7 81 0.0 1.6 0.00 0.08 0.03 49 1009.8
20260507142003 8 36 8.0 19.3 0.00 0.08 0.03 48 1009.7
20260507141504 8 57 9.7 19.3 0.00 0.08 0.03 45 1009.7
20260507141003 8 334 12.9 24.1 0.00 0.08 0.03 43 1009.7
20260507140003 7 196 0.0 0.0 0.00 0.08 0.03 48 1009.5
20260507135503 6 196 0.0 0.0 0.00 0.08 0.03 52 1009.5
20260507135003 6 196 0.0 0.0 0.00 0.08 0.03 52 1009.5
20260507134003 6 196 0.0 0.0 0.00 0.08 0.03 52 1009.5
20260507133503 6 196 3.2 8.0 0.00 0.08 0.03 52 1009.5
20260507132503 6 198 0.0 0.0 0.00 0.08 0.03 52 1009.4
20260507132003 6 198 0.0 0.0 0.00 0.08 0.03 51 1009.3
20260507131003 6 214 3.2 11.3 0.00 0.08 0.03 51 1009.4
20260507130503 6 210 0.0 0.0 0.00 0.08 0.03 51 1009.4
20260507130003 6 210 0.0 0.0 0.00 0.08 0.03 50 1009.4
20260507125503 6 210 0.0 0.0 0.00 0.08 0.03 50 1009.3
20260507125003 7 212 0.0 0.0 0.00 0.08 0.03 51 1009.3
20260507124503 7 212 1.6 4.8 0.00 0.08 0.03 52 1009.3
20260507124003 7 186 0.0 9.7 0.00 0.08 0.03 54 1009.4
20260507122503 6 213 0.0 8.0 0.00 0.08 0.03 56 1009.2
20260507122004 6 215 0.0 0.0 0.00 0.08 0.03 56 1009.2
20260507121503 6 207 0.0 0.0 0.00 0.08 0.03 56 1009.2
20260507121003 6 213 0.0 0.0 0.00 0.08 0.03 55 1009.2
20260507120003 6 234 0.0 0.0 0.00 0.08 0.03 56 1009.2
20260507115003 6 314 0.0 0.0 0.00 0.08 0.03 51 1009.1
20260507114503 7 317 0.0 0.0 0.00 0.08 0.03 49 1009.1
20260507114003 7 317 0.0 0.0 0.00 0.08 0.03 50 1009.1
20260507113503 6 317 0.0 0.0 0.00 0.08 0.03 52 1009.0
20260507112003 6 316 0.0 0.0 0.00 0.08 0.03 52 1009.0
20260507111503 6 342 0.0 11.3 0.00 0.08 0.03 53 1009.0
20260507110503 6 236 0.0 0.0 0.00 0.08 0.03 51 1008.9
20260507110003 6 236 0.0 0.0 0.00 0.08 0.03 50 1008.9
20260507105003 7 224 4.8 19.3 0.00 0.08 0.03 49 1008.9
20260507104503 8 289 3.2 20.9 0.00 0.08 0.03 46 1008.8
20260507104004 9 322 3.2 20.9 0.00 0.08 0.03 44 1008.7
20260507103503 8 276 1.6 9.7 0.00 0.08 0.03 43 1008.6
20260507103004 8 296 1.6 11.3 0.00 0.08 0.03 43 1008.5
20260507102502 8 66 0.0 3.2 0.00 0.08 0.03 45 1008.5
20260507102003 7 188 0.0 0.0 0.00 0.08 0.03 46 1008.5
20260507101503 7 264 0.0 8.0 0.00 0.08 0.03 47 1008.6
20260507101003 7 300 9.7 14.5 0.00 0.08 0.03 47 1008.6
20260507100503 7 291 6.4 19.3 0.00 0.08 0.03 47 1008.5
20260507100003 7 340 6.4 19.3 0.00 0.08 0.03 47 1008.5
20260507095502 7 307 8.0 24.1 0.00 0.08 0.03 49 1008.4
20260507095003 7 258 8.0 22.5 0.00 0.08 0.03 47 1008.4
20260507094503 7 314 8.0 16.1 0.03 0.08 0.03 48 1008.4
20260507094003 7 305 4.8 14.5 0.03 0.08 0.03 49 1008.5
20260507093503 6 268 1.6 14.5 0.03 0.08 0.03 50 1008.5
20260507093003 6 320 1.6 11.3 0.03 0.08 0.03 49 1008.4
20260507092503 6 312 4.8 12.9 0.03 0.08 0.03 50 1008.4
20260507092003 6 348 6.4 12.9 0.03 0.08 0.03 49 1008.4
20260507091503 7 356 1.6 11.3 0.03 0.08 0.03 52 1008.4
20260507090504 7 33 0.0 11.3 0.03 0.08 0.03 53 1008.4
20260507090004 7 328 1.6 9.7 0.03 0.08 0.03 51 1008.4
20260507085503 7 246 0.0 14.5 0.03 0.08 0.03 50 1008.4
20260507085003 6 176 3.2 12.9 0.03 0.08 0.03 54 1008.3
20260507084003 5 319 0.0 0.0 0.00 0.05 0.00 54 1008.4
20260507083503 5 319 0.0 0.0 0.00 0.05 0.00 55 1008.4
20260507083003 5 49 0.0 0.0 0.00 0.05 0.00 54 1008.3
20260507082503 5 51 0.0 0.0 0.00 0.05 0.00 58 1008.4
20260507082003 6 51 0.0 0.0 0.00 0.05 0.00 57 1008.4
20260507081003 6 68 1.6 8.0 0.00 0.05 0.00 59 1008.4
20260507080503 6 67 1.6 8.0 0.00 0.05 0.00 61 1008.4
20260507080004 6 73 4.8 16.1 0.00 0.05 0.00 61 1008.3
20260507075503 6 79 0.0 4.8 0.00 0.05 0.00 60 1008.3
20260507075003 6 80 1.6 4.8 0.00 0.05 0.00 59 1008.3
20260507074003 6 94 0.0 4.8 0.00 0.05 0.00 64 1008.3
20260507073503 6 71 4.8 9.7 0.00 0.05 0.00 63 1008.3
20260507073003 5 88 0.0 0.0 0.00 0.05 0.00 66 1008.3
20260507072503 5 92 0.0 0.0 0.00 0.05 0.00 70 1008.3
20260507072003 5 92 0.0 8.0 0.00 0.05 0.00 67 1008.3
20260507070503 4 63 0.0 0.0 0.00 0.05 0.00 71 1008.2
20260507070005 3 69 1.6 8.0 0.00 0.05 0.00 71 1008.3
20260507065503 3 50 1.6 8.0 0.00 0.05 0.00 70 1008.2
20260507065003 3 46 0.0 4.8 0.00 0.05 0.00 71 1008.3
20260507064503 3 57 0.0 0.0 0.00 0.05 0.00 72 1008.2
20260507064003 3 57 0.0 3.2 0.00 0.05 0.00 72 1008.2